{"data":{"norad_id":64018,"intl_designator":"2025-101AA","name":"STARLINK-34162","alt_names":[],"object_type":"PAYLOAD","status":"ACTIVE","operator":null,"country":"US","launch_date":"2025-05-14","launch_site_code":"AFETR","launch_vehicle":null,"mission":null,"orbit_class":"UNKNOWN","rcs_meters":null,"size_class":null,"mass_kg":null,"dimensions":null,"purposes":["comms"],"wikipedia_slug":null,"has_3d_model":false,"image_url":null,"decayed_at":null,"tle_current":{"epoch":"2026-09-20T12:47:51.449568Z","epoch_age_seconds":140805,"freshness":"FRESH","line1":"1 64018U 25101AA  26263.53323437  .00011156  00000+0  41426-3 0  9990","line2":"2 64018  43.0048 337.6162 0001430 268.1454  91.9233 15.27582390 76851","mean_motion":15.2758239,"eccentricity":0.000143,"inclination_deg":43.0048,"raan_deg":337.6162,"arg_perigee_deg":268.1454,"mean_anomaly_deg":91.9233,"bstar":0.00041426,"rev_number":7685,"period_min":94.266601227316,"perigee_km":482.06079094083,"apogee_km":484.02308811754,"semimajor_km":6861.1789395292,"source":"CELESTRAK","updated_at":"2026-09-21T09:00:35.184818Z"}}}